Location: Newark
(7.0858°N, 171.3717°E)
Time: 20:06:53
(UTC+00:00)

Tiros 1 - Pass Details

Date: 03 December 2020
Orbit: 630 x 663 km, 48.4° (Epoch: 18 January)

Event Time Altitude Azimuth Distance (km) Brightness Sun altitude
Rises 10:43:07 0° 318° (NW) 2,941 - -61.3°
Reaches altitude 10° 10:45:27 10° 317° (NW) 2,027 - -61.8°
Maximum altitude 10:50:07 76° 232° (SW) 658 - -62.7°
Drops below altitude 10° 10:54:44 10° 146° (SE) 2,010 - -63.6°
Sets 10:57:03 0° 144° (SE) 2,915 - -64.1°
